LA7IN Weather Reports


Display with metric or nautical units.
time (UTC)temp
F
wind
direction
speed
MPH
gust
MPH
rain 1hr
in
rain 24hr
in
rain mn
in
humidity
%
barometer
mb
20260506170047 46 325 4.0 16.0 0.00 0.00 0.00 61 1015.6
20260506164546 47 4 5.0 13.0 0.00 0.00 0.00 59 1015.8
20260506163043 47 320 7.0 15.0 0.00 0.00 0.00 59 1015.7
20260506161544 47 303 7.0 15.0 0.00 0.00 0.00 60 1015.7
20260506160057 47 322 8.0 15.0 0.00 0.00 0.00 60 1015.6
20260506154542 48 301 8.0 15.0 0.00 0.00 0.00 57 1015.7
20260506153043 49 338 4.0 14.0 0.00 0.00 0.00 55 1015.7
20260506151543 49 321 6.0 12.0 0.00 0.00 0.00 55 1015.8
20260506150040 49 12 4.0 10.0 0.00 0.00 0.00 54 1015.8
20260506144553 48 342 6.0 14.0 0.00 0.00 0.00 55 1015.8
20260506143039 48 359 8.0 14.0 0.00 0.00 0.00 57 1015.9
20260506141539 49 315 8.0 13.0 0.00 0.00 0.00 57 1016.0
20260506140038 49 308 6.0 16.0 0.00 0.00 0.00 59 1016.0
20260506134537 49 311 5.0 14.0 0.00 0.00 0.00 58 1016.0
20260506133039 49 320 5.0 13.0 0.00 0.00 0.00 58 1016.1
20260506131542 48 344 3.0 12.0 0.00 0.00 0.00 59 1016.2
20260506130034 47 310 4.0 11.0 0.00 0.00 0.00 59 1016.2
20260506124534 47 299 4.0 10.0 0.00 0.00 0.00 61 1016.2
20260506123032 47 322 4.0 10.0 0.00 0.00 0.00 64 1016.2
20260506121531 47 299 4.0 11.0 0.00 0.00 0.00 64 1016.3
20260506120030 47 47 3.0 10.0 0.00 0.00 0.00 62 1016.4
20260506114536 46 314 3.0 9.0 0.00 0.00 0.00 61 1016.2
20260506113030 46 329 2.0 6.0 0.00 0.00 0.00 64 1016.2
20260506111527 45 316 1.0 8.0 0.00 0.00 0.00 67 1016.2
20260506110032 45 310 3.0 8.0 0.00 0.00 0.00 68 1016.2
20260506104526 43 313 4.0 10.0 0.00 0.00 0.00 69 1016.2
20260506103029 42 309 5.0 10.0 0.00 0.00 0.00 74 1016.2
20260506101526 43 291 4.0 12.0 0.00 0.00 0.00 74 1016.3
20260506100025 46 325 3.0 9.0 0.00 0.00 0.00 63 1016.1
20260506094522 46 349 1.0 6.0 0.00 0.00 0.00 64 1016.1
20260506093020 46 341 2.0 6.0 0.00 0.00 0.00 68 1016.1
20260506091521 45 299 1.0 6.0 0.00 0.00 0.00 67 1016.2
20260506090019 44 326 4.0 6.0 0.00 0.00 0.00 67 1016.2
20260506084519 45 332 2.0 8.0 0.00 0.00 0.00 66 1016.1
20260506083018 45 337 2.0 6.0 0.00 0.00 0.00 66 1016.0
20260506081518 44 316 1.0 9.0 0.00 0.00 0.00 68 1016.0
20260506073014 45 71 0.0 4.0 0.00 0.00 0.00 65 1015.9
20260506071510 44 354 0.0 3.0 0.00 0.00 0.00 69 1015.9
20260506061556 40 346 0.0 2.0 0.00 0.00 0.00 76 1015.8
20260506014520 38 35 0.0 3.0 0.00 0.00 0.00 79 1015.7
20260506013019 38 359 0.0 3.0 0.00 0.00 0.00 79 1015.6
20260506011528 38 341 1.0 4.0 0.00 0.00 0.00 79 1015.6
20260506010018 38 343 2.0 5.0 0.00 0.00 0.00 79 1015.5
20260506004530 38 333 2.0 5.0 0.00 0.00 0.00 80 1015.5
20260506003020 38 339 0.0 4.0 0.00 0.00 0.00 79 1015.6
20260506001515 39 327 1.0 3.0 0.00 0.00 0.00 79 1015.7
20260506000017 39 330 1.0 5.0 0.00 0.00 0.00 78 1015.7
20260505234511 39 312 2.0 4.0 0.00 0.00 0.00 77 1015.6
20260505233011 39 359 2.0 6.0 0.00 0.00 0.00 77 1015.6
20260505231508 39 297 2.0 8.0 0.00 0.00 0.00 77 1015.4
20260505230007 39 293 2.0 5.0 0.00 0.00 0.00 77 1015.5
20260505224506 39 297 2.0 4.0 0.00 0.00 0.00 76 1015.5
20260505223006 40 314 2.0 4.0 0.00 0.00 0.00 76 1015.6
20260505221505 40 315 1.0 8.0 0.00 0.00 0.00 75 1015.5
20260505220002 40 303 4.0 9.0 0.00 0.00 0.00 75 1015.7
20260505214502 40 316 3.0 6.0 0.00 0.00 0.00 75 1015.5
20260505213001 40 282 3.0 8.0 0.00 0.00 0.00 73 1015.5
20260505211501 40 284 2.0 10.0 0.00 0.00 0.00 73 1015.5
20260505210107 40 298 5.0 10.0 0.00 0.00 0.00 72 1015.6
20260505204601 40 340 4.0 9.0 0.00 0.00 0.00 74 1015.5
20260505203100 40 310 2.0 6.0 0.00 0.00 0.00 75 1015.5
20260505201601 41 326 4.0 10.0 0.00 0.00 0.00 74 1015.6
20260505200059 41 319 4.0 10.0 0.00 0.00 0.00 72 1015.6
20260505194601 41 299 2.0 9.0 0.00 0.00 0.00 72 1015.5
20260505193125 42 314 2.0 6.0 0.00 0.00 0.00 71 1015.4
20260505191604 42 324 5.0 11.0 0.00 0.00 0.00 71 1015.3
20260505190054 43 306 2.0 9.0 0.00 0.00 0.00 68 1015.2
20260505184556 43 309 2.0 10.0 0.00 0.00 0.00 67 1015.0
20260505183054 43 330 1.0 6.0 0.00 0.00 0.00 67 1015.0
20260505181554 42 296 3.0 8.0 0.00 0.00 0.00 72 1014.9
20260505180052 43 288 4.0 11.0 0.00 0.00 0.00 69 1015.0
20260505174552 45 289 2.0 8.0 0.00 0.00 0.00 67 1015.0
20260505173051 45 329 3.0 9.0 0.00 0.00 0.00 66 1014.9
20260505171552 45 318 1.0 11.0 0.00 0.00 0.00 66 1014.9